WetterOnline ( http://www.wetteronline.de )

Wetter aktuell Sylt

Aktuelles Wetter: List/Sylt (29m)

6-stündlich | Neueste Meldungen
Ortszeit Temperatur Wetter
Do, 16.08. 2:00 19.3° C bedeckt
Mi, 15.08. 20:00 20.0° C wolkig
Mi, 15.08. 14:00 20.5° C bedeckt
Mi, 15.08. 8:00 18.6° C bedeckt
Mi, 15.08. 2:00 17.7° C wolkig
Di, 14.08. 20:00 18.4° C bedeckt
Di, 14.08. 14:00 20.4° C wolkenlos
Di, 14.08. 8:00 18.6° C bewölkt
Ortszeit Temperatur Wetter
Do, 16.08. 2:10 19.3° C bedeckt
Do, 16.08. 2:00 19.3° C bedeckt
Do, 16.08. 1:40 19.3° C bedeckt
Do, 16.08. 1:30 19.4° C bedeckt
Do, 16.08. 1:20 19.4° C bedeckt
Do, 16.08. 1:10 19.4° C bedeckt
Do, 16.08. 1:00 19.5° C bedeckt
Do, 16.08. 0:30 19.6° C bedeckt
Do, 16.08. 0:00 19.8° C bewölkt
Mi, 15.08. 23:30 19.6° C bedeckt
Mi, 15.08. 23:00 19.9° C bedeckt
Ortszeit Relative Feuchte Sichtweite
Do, 16.08. 2:00 82% 22 km
Mi, 15.08. 20:00 79% 22 km
Mi, 15.08. 14:00 74% 9 km
Mi, 15.08. 8:00 83% 23 km
Mi, 15.08. 2:00 74% 50 km
Di, 14.08. 20:00 87% 40 km
Di, 14.08. 14:00 72% 9 km
Di, 14.08. 8:00 85% 11 km
Ortszeit Relative Feuchte Sichtweite
Do, 16.08. 2:10 83% -
Do, 16.08. 2:00 82% 22 km
Do, 16.08. 1:40 81% -
Do, 16.08. 1:30 81% 21 km
Do, 16.08. 1:20 81% -
Do, 16.08. 1:10 80% -
Do, 16.08. 1:00 81% 20 km
Do, 16.08. 0:30 80% 19 km
Do, 16.08. 0:00 84% 17 km
Mi, 15.08. 23:30 85% 17 km
Mi, 15.08. 23:00 84% 16 km
Ortszeit Niederschlagsmenge Niederschlagsart
Do, 16.08. 2:00 0.1 l/m2 in 6 Std. Regen
Mi, 15.08. 20:00 0.0 l/m2 in 12 Std. -
Mi, 15.08. 14:00 0.0 l/m2 in 6 Std. -
Mi, 15.08. 8:00 0.1 l/m2 in 12 Std. Regen
Mi, 15.08. 2:00 0.1 l/m2 in 6 Std. Regen
Di, 14.08. 20:00 0.1 l/m2 in 12 Std. Regen
Di, 14.08. 14:00 0.0 l/m2 in 6 Std. -
Di, 14.08. 8:00 0.8 l/m2 in 12 Std. Regen
Ortszeit Niederschlagsmenge Niederschlagsart
Do, 16.08. 2:10 keine Meldung -
Do, 16.08. 2:00 0.0 l/m2 in 1 Std. Regen
Do, 16.08. 1:40 keine Meldung -
Do, 16.08. 1:30 0.0 l/m2 in 1 Std. -
Do, 16.08. 1:20 keine Meldung -
Do, 16.08. 1:10 keine Meldung -
Do, 16.08. 1:00 0.0 l/m2 in 1 Std. -
Do, 16.08. 0:30 0.0 l/m2 in 1 Std. -
Do, 16.08. 0:00 0.1 l/m2 in 1 Std. Regen
Mi, 15.08. 23:30 0.1 l/m2 in 1 Std. Schneeregen
Mi, 15.08. 23:00 0.1 l/m2 in 1 Std. Sprühregen
Ortszeit Stärke Spitze Richtung
km/h Bft. km/h Grad Sektor
Do, 16.08. 2:00 25 4 40 210° SW
Mi, 15.08. 20:00 19 3 39 230° SW
Mi, 15.08. 14:00 25 4 43 250° W
Mi, 15.08. 8:00 24 4 37 250° W
Mi, 15.08. 2:00 18 3 54 280° W
Di, 14.08. 20:00 40 6 50 290° W
Di, 14.08. 14:00 20 4 31 300° NW
Di, 14.08. 8:00 18 3 29 320° NW
Ortszeit Stärke Spitze Richtung
km/h Bft. km/h Grad Sektor
Do, 16.08. 2:10 25 4 - 210° SW
Do, 16.08. 2:00 25 4 40 210° SW
Do, 16.08. 1:40 29 5 - 220° SW
Do, 16.08. 1:30 28 4 37 220° SW
Do, 16.08. 1:20 28 4 - 220° SW
Do, 16.08. 1:10 28 4 - 210° SW
Do, 16.08. 1:00 28 4 35 220° SW
Do, 16.08. 0:30 22 4 36 220° SW
Do, 16.08. 0:00 19 3 33 210° SW
Mi, 15.08. 23:30 20 4 30 210° SW
Mi, 15.08. 23:00 18 3 32 200° S
Ortszeit Untergrenze Bedeckung Gattung
total tief tief mittel hoch
Do, 16.08. 2:00 510 m 8/8 8/8 - - -
Mi, 15.08. 20:00 8700 m 7/8 0/8 - - -
Mi, 15.08. 14:00 420 m 8/8 - - - -
Mi, 15.08. 8:00 420 m 8/8 8/8 - - -
Mi, 15.08. 2:00 690 m 8/8 1/8 - - -
Di, 14.08. 20:00 240 m 8/8 8/8 - - -
Di, 14.08. 14:00 - 0/8 0/8 - - -
Di, 14.08. 8:00 450 m 8/8 5/8 - - -
Ortszeit Bedeckungsgrad in Achtel und Wolkenuntergrenze
Do, 16.08. 2:10 2(510m) 7(1110m) 8(1290m)
Do, 16.08. 2:00 1(510m) 4(960m) 8(1260m)
Do, 16.08. 1:40 2(540m) 7(990m) 8(1200m)
Do, 16.08. 1:30 3(510m) 5(660m) 8(1110m)
Do, 16.08. 1:20 3(510m) 5(660m) 8(1110m)
Do, 16.08. 1:10 4(540m) 5(720m) 8(1110m)
Do, 16.08. 1:00 3(540m) 4(690m) 8(1020m)
Do, 16.08. 0:30 2(660m) 8(960m) 8(930m)
Do, 16.08. 0:00 2(540m) 7(990m) 7(1500m)
Mi, 15.08. 23:30 2(480m) 3(630m) 8(840m)
Mi, 15.08. 23:00 6(540m) 8(780m) 8(810m)
Ortszeit Luftdruck NN (hPa) Tendenz (hPa in 3 Std.)
Do, 16.08. 2:00 1016 - 0,4
Mi, 15.08. 20:00 1016 - 0,1
Mi, 15.08. 14:00 1016 + 0,7
Mi, 15.08. 8:00 1014 + 0,5
Mi, 15.08. 2:00 1014 + 0,9
Di, 14.08. 20:00 1011 + 0,8
Di, 14.08. 14:00 1009 + 1,7
Di, 14.08. 8:00 1005 + 1,2
Ortszeit Luftdruck NN (hPa) Tendenz (hPa in 3 Std.)
Do, 16.08. 2:10 1016 keine Meldung
Do, 16.08. 2:00 1016 - 0,4
Do, 16.08. 1:40 1016 keine Meldung
Do, 16.08. 1:30 1016 - 0,2
Do, 16.08. 1:20 1016 keine Meldung
Do, 16.08. 1:10 1016 keine Meldung
Do, 16.08. 1:00 1016 - 0,3
Do, 16.08. 0:30 1016 - 0,2
Do, 16.08. 0:00 1016 - 0,3
Mi, 15.08. 23:30 1016 - 0,1
Mi, 15.08. 23:00 1016 0,0
Ortszeit Schneehöhe (cm)
Do, 16.08. 2:00 0
Mi, 15.08. 20:00 0
Mi, 15.08. 14:00 0
Mi, 15.08. 8:00 0
Mi, 15.08. 2:00 0
Di, 14.08. 20:00 0
Di, 14.08. 14:00 0
Di, 14.08. 8:00 0
Ortszeit Schneehöhe (cm)
Do, 16.08. 2:10 0
Do, 16.08. 2:00 0
Do, 16.08. 1:40 0
Do, 16.08. 1:30 0
Do, 16.08. 1:20 0
Do, 16.08. 1:10 0
Do, 16.08. 1:00 0
Do, 16.08. 0:30 0
Do, 16.08. 0:00 0
Mi, 15.08. 23:30 0
Mi, 15.08. 23:00 0
Link zu dieser Seite / Seite empfehlen

Das Wetter in ...